Location: Thompson
(55.7500°N, 97.8670°W)
Time: 02:47:36
(UTC-05:00)

Amateur Radio Satellites - All Passes

Search period start: 25 October 2014 02:17
Search period end: 26 October 2014 02:17
Location: Thompson, 55.7500°N, 97.8670°W

Satellite Date Start Highest point End Downlink Frequencies (MHz)
Time Altitude Azimuth
AO-Echo 25 Oct 02:32:20 02:36:20 21° 88° (E) 02:40:21 ?
Oscar 16 25 Oct 02:37:57 02:42:40 35° 95° (E) 02:47:22 437.025 USB, Beacon 2401.1428
JAS-1B 25 Oct 02:40:19 02:46:14 38° 96° (E) 02:53:05 435.800 - 435.900 CW/SSB
Uribyol 2 25 Oct 02:57:58 03:02:19 26° 91° (E) 03:06:38 436.500 FM
ITAMSAT 1 25 Oct 03:03:59 03:08:26 27° 92° (E) 03:12:51 435.822 SSB
MaSat-1 25 Oct 03:06:25 03:09:16 20° 325° (NW) 03:11:53 437.345 MHz
RS-15 25 Oct 03:17:13 03:27:55 55° 352° (N) 03:38:52 29.354 - 29.394 USB, Beacon 29.352 USB
Gurwin Techsat 1B 25 Oct 03:24:47 03:29:07 25° 90° (E) 03:33:24 435.225 FM
Oscar 19 25 Oct 03:31:15 03:36:25 84° 106° (ESE) 03:41:33 437.125 CW, 437.150 USB
OPAL 25 Oct 03:35:41 03:39:15 19° 46° (NE) 03:42:46 ?
TMSAT-1 25 Oct 03:35:58 03:40:11 23° 89° (E) 03:44:23 436.925 FM
AO-27 25 Oct 03:49:21 03:54:33 58° 102° (ESE) 03:59:42 436.795 MHz FM
AO-Echo 25 Oct 04:10:25 04:15:44 83° 288° (WNW) 04:21:04 ?
AO-7 25 Oct 04:16:27 04:22:04 19° 83° (E) 04:27:39 29.400 - 29.500 MHz
Oscar 16 25 Oct 04:17:17 04:22:12 47° 296° (WNW) 04:27:06 437.025 USB, Beacon 2401.1428
Sapphire 25 Oct 04:28:19 04:32:48 27° 113° (ESE) 04:37:18 437.095 MHz 1200 baud AX-25 AFSK
JAS-1B 25 Oct 04:31:05 04:37:12 59° 295° (WNW) 04:44:24 435.800 - 435.900 CW/SSB
Uribyol 2 25 Oct 04:37:04 04:42:16 66° 292° (WNW) 04:47:25 436.500 FM
ITAMSAT 1 25 Oct 04:43:10 04:48:21 63° 293° (WNW) 04:53:30 435.822 SSB
PCSat 25 Oct 04:50:07 04:55:07 39° 118° (ESE) 05:00:09 145.825 MHz
Gurwin Techsat 1B 25 Oct 05:04:18 05:09:37 72° 291° (WNW) 05:14:55 435.225 FM
Oscar 19 25 Oct 05:11:18 05:15:15 23° 307° (NW) 05:19:12 437.125 CW, 437.150 USB
OPAL 25 Oct 05:12:20 05:17:27 75° 67° (ENE) 05:22:32 ?
TMSAT-1 25 Oct 05:15:22 05:20:41 75° 290° (WNW) 05:25:59 436.925 FM
STRAND 1 25 Oct 05:20:32 05:23:57 18° 48° (NE) 05:27:23 ?
AO-27 25 Oct 05:29:15 05:33:52 32° 302° (WNW) 05:38:28 436.795 MHz FM
RS-15 25 Oct 05:31:17 05:42:14 64° 24° (NNE) 05:53:32 29.354 - 29.394 USB, Beacon 29.352 USB
AO-Echo 25 Oct 05:50:00 05:53:51 21° 309° (NW) 05:57:43 ?
JAS-2 25 Oct 05:52:09 05:58:37 28° 86° (E) 06:05:11 435.800 - 435.900 CW/SSB, 435.910 FM
Uosat F 25 Oct 05:55:36 06:00:33 51° 100° (E) 06:05:28 435.120 FM
Oscar 16 25 Oct 05:58:14 06:00:28 13° 318° (NW) 06:02:43 437.025 USB, Beacon 2401.1428
AO-7 25 Oct 06:08:15 06:16:33 67° 106° (ESE) 06:24:51 29.400 - 29.500 MHz
Sapphire 25 Oct 06:10:20 06:15:46 79° 315° (NW) 06:21:15 437.095 MHz 1200 baud AX-25 AFSK
Uribyol 2 25 Oct 06:17:35 06:20:54 17° 313° (NW) 06:24:12 436.500 FM
JAS-1B 25 Oct 06:22:54 06:26:54 18° 317° (NW) 06:31:15 435.800 - 435.900 CW/SSB
ITAMSAT 1 25 Oct 06:23:45 06:26:58 17° 314° (NW) 06:30:11 435.822 SSB
PCSat 25 Oct 06:33:03 06:38:25 59° 321° (NW) 06:43:49 145.825 MHz
Gurwin Techsat 1B 25 Oct 06:45:14 06:48:48 19° 312° (NW) 06:52:22 435.225 FM
OPAL 25 Oct 06:52:53 06:56:52 23° 267° (W) 07:00:51 ?
Hamsat 25 Oct 06:55:15 06:59:05 33° 95° (E) 07:02:54 145.90 MHz
TMSAT-1 25 Oct 06:56:12 06:59:52 19° 311° (NW) 07:03:30 436.925 FM
STRAND 1 25 Oct 06:57:16 07:02:23 72° 69° (ENE) 07:07:33 ?
Uosat F 25 Oct 07:34:41 07:39:13 34° 301° (WNW) 07:43:45 435.120 FM
JAS-2 25 Oct 07:36:49 07:44:30 90° 288° (WNW) 07:52:25 435.800 - 435.900 CW/SSB, 435.910 FM
RS-15 25 Oct 07:44:06 07:55:02 70° 233° (SW) 08:06:24 29.354 - 29.394 USB, Beacon 29.352 USB
Saudisat 1A 25 Oct 07:54:49 07:57:34 16° 115° (ESE) 08:00:19 436.775 MHz
Sapphire 25 Oct 07:55:05 07:59:57 32° 338° (NNW) 08:04:50 437.095 MHz 1200 baud AX-25 AFSK
SO-67 25 Oct 07:55:08 07:57:46 20° 92° (E) 08:00:22 435.3500 MHz FM
MaSat-1 25 Oct 07:57:39 08:00:01 21° 36° (NE) 08:02:11 437.345 MHz
AO-7 25 Oct 08:01:23 08:09:08 45° 310° (NW) 08:16:52 29.400 - 29.500 MHz
PCSat 25 Oct 08:18:11 08:22:51 28° 345° (NNW) 08:27:33 145.825 MHz
HO-68 25 Oct 08:29:40 08:30:51 10° 75° (ENE) 08:32:01 435.675 MHz FM
Hamsat 25 Oct 08:31:13 08:35:06 37° 295° (WNW) 08:38:58 145.90 MHz
STRAND 1 25 Oct 08:38:02 08:42:07 23° 270° (W) 08:46:14 ?
JAS-2 25 Oct 09:22:22 09:28:50 32° 309° (NW) 09:35:31 435.800 - 435.900 CW/SSB, 435.910 FM
SO-67 25 Oct 09:27:38 09:30:57 44° 291° (WNW) 09:34:15 435.3500 MHz FM
Saudisat 1A 25 Oct 09:32:05 09:36:28 76° 135° (SE) 09:40:54 436.775 MHz
MaSat-1 25 Oct 09:33:07 09:35:48 40° 240° (WSW) 09:38:14 437.345 MHz
Sapphire 25 Oct 09:40:24 09:44:54 25° 4° (N) 09:49:23 437.095 MHz 1200 baud AX-25 AFSK
AO-7 25 Oct 09:54:26 10:00:05 21° 335° (NNW) 10:05:43 29.400 - 29.500 MHz
RS-15 25 Oct 09:57:15 10:05:26 25° 259° (WSW) 10:13:51 29.354 - 29.394 USB, Beacon 29.352 USB
PCSat 25 Oct 10:03:15 10:07:50 27° 11° (N) 10:12:25 145.825 MHz
UKube-1 25 Oct 10:07:25 10:09:59 15° 87° (E) 10:12:32 145.840 MHz, 145.915 MHz
HO-68 25 Oct 10:13:44 10:20:37 45° 98° (E) 10:27:27 435.675 MHz FM
FUNcube-1 25 Oct 10:47:33 10:50:16 16° 87° (E) 10:52:55 145.950 - 145.970 MHz USB
Oscar 11 25 Oct 10:47:38 10:51:31 31° 95° (E) 10:55:21 145.825 FM, Beacon 2401.500 USB
JAS-2 25 Oct 11:08:30 11:11:48 14° 332° (NNW) 11:15:11 435.800 - 435.900 CW/SSB, 435.910 FM
Saudisat 1A 25 Oct 11:12:18 11:16:25 36° 338° (NNW) 11:20:33 436.775 MHz
Sapphire 25 Oct 11:24:33 11:29:41 40° 29° (NNE) 11:34:48 437.095 MHz 1200 baud AX-25 AFSK
ZACube-1 25 Oct 11:38:21 11:42:29 42° 98° (E) 11:46:30 437.345 MHz
Oscar 19 25 Oct 11:41:02 11:43:26 13° 43° (NE) 11:45:50 437.125 CW, 437.150 USB
UKube-1 25 Oct 11:42:25 11:46:50 90° 276° (W) 11:51:13 145.840 MHz, 145.915 MHz
AO-7 25 Oct 11:45:40 11:49:59 16° 2° (N) 11:54:18 29.400 - 29.500 MHz
PCSat 25 Oct 11:47:07 11:52:26 50° 35° (NE) 11:57:43 145.825 MHz
JAS-1B 25 Oct 11:47:31 11:50:53 16° 41° (NE) 11:54:20 435.800 - 435.900 CW/SSB
KITSAT 1 25 Oct 12:00:47 12:06:40 23° 104° (ESE) 12:12:33 435.175 FM
HO-68 25 Oct 12:01:33 12:08:33 56° 300° (WNW) 12:15:32 435.675 MHz FM
AO-27 25 Oct 12:01:39 12:02:56 11° 38° (NE) 12:04:14 436.795 MHz FM
AO-Echo 25 Oct 12:16:59 12:19:32 14° 44° (NE) 12:22:08 ?
FUNcube-1 25 Oct 12:22:56 12:27:16 80° 287° (WNW) 12:31:29 145.950 - 145.970 MHz USB
Oscar 11 25 Oct 12:23:45 12:27:49 41° 295° (WNW) 12:31:52 145.825 FM, Beacon 2401.500 USB
Oscar 16 25 Oct 12:24:39 12:28:43 24° 54° (NE) 12:32:47 437.025 USB, Beacon 2401.1428
Uribyol 2 25 Oct 12:45:55 12:49:35 20° 49° (NE) 12:53:16 436.500 FM
ITAMSAT 1 25 Oct 12:51:59 12:55:45 21° 50° (NE) 12:59:31 435.822 SSB
Saudisat 1A 25 Oct 12:53:15 12:57:00 26° 1° (N) 13:00:46 436.775 MHz
Sapphire 25 Oct 13:08:05 13:13:32 72° 232° (SW) 13:18:56 437.095 MHz 1200 baud AX-25 AFSK
ZACube-1 25 Oct 13:14:59 13:18:48 31° 299° (WNW) 13:22:31 437.345 MHz
Gurwin Techsat 1B 25 Oct 13:15:42 13:19:20 19° 48° (NE) 13:22:58 435.225 FM
Oscar 19 25 Oct 13:16:47 13:21:44 50° 65° (ENE) 13:26:41 437.125 CW, 437.150 USB
UKube-1 25 Oct 13:19:31 13:22:28 18° 307° (NW) 13:25:25 145.840 MHz, 145.915 MHz
TMSAT-1 25 Oct 13:26:41 13:30:11 18° 48° (NE) 13:33:41 436.925 FM
PCSat 25 Oct 13:30:42 13:35:57 50° 238° (WSW) 13:41:10 145.825 MHz
AO-7 25 Oct 13:33:59 13:40:00 23° 29° (NNE) 13:46:01 29.400 - 29.500 MHz
JAS-1B 25 Oct 13:34:52 13:40:30 60° 65° (ENE) 13:46:11 435.800 - 435.900 CW/SSB
AO-27 25 Oct 13:36:23 13:41:09 37° 60° (ENE) 13:45:57 436.795 MHz FM
SO-50 25 Oct 13:36:41 13:40:27 26° 119° (ESE) 13:44:19 436.795 FM
HO-68 25 Oct 13:49:57 13:54:57 21° 324° (NW) 13:59:58 435.675 MHz FM
AO-Echo 25 Oct 13:52:26 13:57:15 53° 66° (ENE) 14:02:17 ?
KITSAT 1 25 Oct 13:52:47 14:00:48 72° 128° (SE) 14:08:52 435.175 FM
FUNcube-1 25 Oct 14:00:26 14:03:00 16° 308° (NW) 14:05:32 145.950 - 145.970 MHz USB
Oscar 16 25 Oct 14:02:26 14:07:37 80° 254° (WSW) 14:12:48 437.025 USB, Beacon 2401.1428
Uribyol 2 25 Oct 14:23:08 14:28:21 78° 70° (ENE) 14:33:37 436.500 FM
ITAMSAT 1 25 Oct 14:29:20 14:34:34 82° 71° (ENE) 14:39:51 435.822 SSB
Saudisat 1A 25 Oct 14:33:21 14:37:33 40° 25° (NNE) 14:41:45 436.775 MHz
JAS-2 25 Oct 14:33:25 14:35:47 12° 23° (NNE) 14:38:13 435.800 - 435.900 CW/SSB, 435.910 FM
ISS 25 Oct 14:34:03 14:36:40 21° 154° (SSE) 14:39:17 145.800 FM
Sapphire 25 Oct 14:52:40 14:56:06 17° 253° (WSW) 14:59:31 437.095 MHz 1200 baud AX-25 AFSK
Gurwin Techsat 1B 25 Oct 14:53:14 14:58:32 74° 70° (ENE) 15:03:52 435.225 FM
Oscar 19 25 Oct 14:56:37 15:01:17 34° 265° (W) 15:05:58 437.125 CW, 437.150 USB
UOSAT-12 25 Oct 14:57:23 15:00:37 19° 115° (ESE) 15:03:54 437.025 FM, 437.400 FM
TMSAT-1 25 Oct 15:04:01 15:09:18 70° 69° (ENE) 15:14:37 436.925 FM
AO-27 25 Oct 15:15:33 15:20:36 48° 261° (W) 15:25:42 436.795 MHz FM
SO-50 25 Oct 15:16:01 15:20:37 77° 321° (NW) 15:25:22 436.795 FM
PCSat 25 Oct 15:16:49 15:18:10 11° 259° (WSW) 15:19:30 145.825 MHz
AO-7 25 Oct 15:23:16 15:31:11 53° 54° (NE) 15:39:10 29.400 - 29.500 MHz
JAS-1B 25 Oct 15:26:49 15:31:45 29° 268° (W) 15:36:41 435.800 - 435.900 CW/SSB
AO-Echo 25 Oct 15:31:54 15:36:19 31° 267° (W) 15:40:53 ?
HO-68 25 Oct 15:38:29 15:40:08 11° 349° (N) 15:41:47 435.675 MHz FM
Uosat F 25 Oct 15:38:34 15:42:58 31° 58° (ENE) 15:47:24 435.120 FM
Oscar 16 25 Oct 15:44:41 15:47:50 16° 275° (W) 15:50:59 437.025 USB, Beacon 2401.1428
KITSAT 1 25 Oct 15:48:46 15:56:41 54° 333° (NNW) 16:04:36 435.175 FM
Uribyol 2 25 Oct 16:04:25 16:08:27 22° 271° (W) 16:12:30 436.500 FM
ISS 25 Oct 16:09:42 16:12:51 39° 174° (S) 16:16:01 145.800 FM
ITAMSAT 1 25 Oct 16:10:50 16:14:43 21° 272° (W) 16:18:39 435.822 SSB
Saudisat 1A 25 Oct 16:12:59 16:17:24 65° 227° (SW) 16:21:47 436.775 MHz
JAS-2 25 Oct 16:13:11 16:18:35 29° 48° (NE) 16:24:29 435.800 - 435.900 CW/SSB, 435.910 FM
Hamsat 25 Oct 16:22:49 16:24:31 12° 50° (NE) 16:26:13 145.90 MHz
Gurwin Techsat 1B 25 Oct 16:34:50 16:39:04 24° 270° (W) 16:43:20 435.225 FM
UOSAT-12 25 Oct 16:35:26 16:40:08 80° 136° (SE) 16:44:54 437.025 FM, 437.400 FM
TMSAT-1 25 Oct 16:45:24 16:49:44 25° 270° (W) 16:54:06 436.925 FM
SO-50 25 Oct 16:57:35 17:01:48 33° 344° (NNW) 17:06:09 436.795 FM
AO-7 25 Oct 17:15:59 17:24:04 55° 258° (WSW) 17:32:13 29.400 - 29.500 MHz
Uosat F 25 Oct 17:16:36 17:21:33 56° 258° (WSW) 17:26:33 435.120 FM
HO-68 25 Oct 17:22:29 17:24:53 12° 16° (NNE) 17:27:17 435.675 MHz FM
ISS 25 Oct 17:46:07 17:49:11 33° 194° (SSW) 17:52:14 145.800 FM
KITSAT 1 25 Oct 17:46:11 17:53:45 41° 1° (N) 18:01:18 435.175 FM
Saudisat 1A 25 Oct 17:53:58 17:56:11 14° 247° (WSW) 17:58:25 436.775 MHz
Hamsat 25 Oct 17:55:33 17:59:42 61° 70° (ENE) 18:03:51 145.90 MHz
JAS-2 25 Oct 17:56:32 18:02:49 90° 72° (ENE) 18:10:01 435.800 - 435.900 CW/SSB, 435.910 FM
UOSAT-12 25 Oct 18:16:18 18:20:43 38° 338° (NNW) 18:25:10 437.025 FM, 437.400 FM
SO-67 25 Oct 18:34:52 18:37:39 23° 63° (ENE) 18:40:27 435.3500 MHz FM
SO-50 25 Oct 18:39:20 18:43:30 30° 9° (N) 18:47:45 436.795 FM
OPAL 25 Oct 18:53:30 18:58:24 52° 103° (ESE) 19:03:13 ?
Uosat F 25 Oct 19:00:23 19:01:30 11° 279° (W) 19:02:37 435.120 FM
STRAND 1 25 Oct 19:01:34 19:04:19 14° 84° (E) 19:07:03 ?
HO-68 25 Oct 19:04:43 19:10:16 25° 41° (NE) 19:15:50 435.675 MHz FM
AO-7 25 Oct 19:14:40 19:18:57 15° 282° (WNW) 19:23:16 29.400 - 29.500 MHz
ISS 25 Oct 19:23:22 19:25:12 14° 213° (SSW) 19:27:02 145.800 FM
Hamsat 25 Oct 19:32:54 19:36:03 20° 270° (W) 19:39:13 145.90 MHz
KITSAT 1 25 Oct 19:42:46 19:50:45 57° 29° (NNE) 19:58:41 435.175 FM
JAS-2 25 Oct 19:44:00 19:48:59 24° 277° (W) 19:54:28 435.800 - 435.900 CW/SSB, 435.910 FM
UOSAT-12 25 Oct 19:57:49 20:01:56 28° 2° (N) 20:06:04 437.025 FM, 437.400 FM
SO-67 25 Oct 20:07:14 20:10:29 39° 262° (W) 20:13:46 435.3500 MHz FM
Oscar 11 25 Oct 20:16:32 20:18:31 13° 49° (NE) 20:20:31 145.825 FM, Beacon 2401.500 USB
SO-50 25 Oct 20:20:13 20:24:55 55° 32° (NNE) 20:29:42 436.795 FM
OPAL 25 Oct 20:32:41 20:37:09 34° 304° (NW) 20:41:35 ?
STRAND 1 25 Oct 20:39:17 20:44:28 72° 104° (ESE) 20:49:37 ?
HO-68 25 Oct 20:49:51 20:56:58 71° 65° (ENE) 21:04:09 435.675 MHz FM
ZACube-1 25 Oct 21:07:21 21:10:22 18° 54° (NE) 21:13:21 437.345 MHz
UKube-1 25 Oct 21:09:26 21:13:22 34° 62° (ENE) 21:17:20 145.840 MHz, 145.915 MHz
KITSAT 1 25 Oct 21:38:28 21:46:27 65° 235° (SW) 21:54:24 435.175 FM
UOSAT-12 25 Oct 21:38:31 21:43:05 44° 26° (NNE) 21:47:37 437.025 FM, 437.400 FM
Oscar 11 25 Oct 21:49:39 21:53:56 62° 70° (ENE) 21:58:13 145.825 FM, Beacon 2401.500 USB
FUNcube-1 25 Oct 21:50:26 21:54:32 34° 63° (ENE) 21:58:35 145.950 - 145.970 MHz USB
SO-50 25 Oct 22:00:55 22:05:29 44° 233° (SW) 22:10:06 436.795 FM
OPAL 25 Oct 22:14:11 22:14:44 10° 326° (NW) 22:15:17 ?
RS-15 25 Oct 22:17:43 22:27:03 35° 108° (ESE) 22:36:22 29.354 - 29.394 USB, Beacon 29.352 USB
STRAND 1 25 Oct 22:19:01 22:23:17 27° 305° (NW) 22:27:31 ?
HO-68 25 Oct 22:38:52 22:45:16 34° 267° (W) 22:51:44 435.675 MHz FM
ZACube-1 25 Oct 22:41:38 22:46:13 87° 74° (ENE) 22:50:43 437.345 MHz
UKube-1 25 Oct 22:45:25 22:49:32 40° 262° (W) 22:53:41 145.840 MHz, 145.915 MHz
UOSAT-12 25 Oct 23:18:47 23:23:29 61° 228° (SW) 23:28:06 437.025 FM, 437.400 FM
FUNcube-1 25 Oct 23:26:34 23:30:53 41° 262° (W) 23:35:09 145.950 - 145.970 MHz USB
Oscar 11 25 Oct 23:27:12 23:30:31 21° 270° (W) 23:33:51 145.825 FM, Beacon 2401.500 USB
KITSAT 1 25 Oct 23:35:02 23:40:25 20° 258° (WSW) 23:45:48 435.175 FM
ZACube-1 26 Oct 00:20:20 00:23:13 16° 273° (W) 00:26:05 437.345 MHz
RS-15 26 Oct 00:27:09 00:38:06 87° 135° (SE) 00:49:11 29.354 - 29.394 USB, Beacon 29.352 USB
MaSat-1 26 Oct 00:51:08 00:54:56 51° 122° (ESE) 00:58:19 437.345 MHz
UOSAT-12 26 Oct 01:00:26 01:02:46 14° 249° (WSW) 01:05:04 437.025 FM, 437.400 FM
JAS-1B 26 Oct 01:11:46 01:13:15 11° 78° (ENE) 01:14:47 435.800 - 435.900 CW/SSB
AO-Echo 26 Oct 01:54:17 01:55:33 11° 79° (E) 01:56:48 ?
Oscar 16 26 Oct 02:07:01 02:10:57 22° 89° (E) 02:14:50 437.025 USB, Beacon 2401.1428
